This is the latest recevied weather packets stored in our database for station/object W4DHW-4. If no packets are shown the sender has not sent any weather packets the latest 10 day(s).
| Time | Temp. | Humidity | Pressure | Rain* | Wind** | Luminosity | Snow |
|---|---|---|---|---|---|---|---|
| 1777870559 | 8.33° C | 74% | 1017 hPa | 0 mm | - | 0 W/m² | - |
| 1777870254 | 8.33° C | 74% | 1016.9 hPa | 0 mm | - | 0 W/m² | - |
| 1777869953 | 8.33° C | 74% | 1017.1 hPa | 0 mm | - | 0 W/m² | - |
| 1777869649 | 8.33° C | 73% | 1016.9 hPa | 0 mm | - | 0 W/m² | - |
| 1777869347 | 8.33° C | 73% | 1016.9 hPa | 0 mm | - | 0 W/m² | - |
| 1777869044 | 8.33° C | 74% | 1016.7 hPa | 0 mm | - | 0 W/m² | - |
| 1777868741 | 8.33° C | 72% | 1016.8 hPa | 0 mm | - | 0 W/m² | - |
| 1777868438 | 8.33° C | 72% | 1016.7 hPa | 0 mm | - | 0 W/m² | - |
| 1777868133 | 8.33° C | 72% | 1016.8 hPa | 0 mm | - | 0 W/m² | - |
| 1777867829 | 8.33° C | 73% | 1016.7 hPa | 0 mm | - | 0 W/m² | - |
| 1777867527 | 8.33° C | 73% | 1016.7 hPa | 0 mm | - | 0 W/m² | - |
| 1777867224 | 8.33° C | 72% | 1016.7 hPa | 0 mm | - | 0 W/m² | - |
| 1777866921 | 8.33° C | 73% | 1016.6 hPa | 0 mm | - | 0 W/m² | - |
| 1777866617 | 8.33° C | 73% | 1016.8 hPa | 0 mm | - | 0 W/m² | - |
| 1777866315 | 8.33° C | 72% | 1016.8 hPa | 0 mm | - | 0 W/m² | - |
| 1777866012 | 8.89° C | 69% | 1016.8 hPa | 0 mm | - | 0 W/m² | - |
| 1777865709 | 8.33° C | 69% | 1016.8 hPa | 0 mm | - | 0 W/m² | - |
| 1777865407 | 8.33° C | 70% | 1016.7 hPa | 0 mm | - | 0 W/m² | - |
| 1777865103 | 8.33° C | 69% | 1016.5 hPa | 0 mm | - | 0 W/m² | - |
| 1777864800 | 8.33° C | 68% | 1016.7 hPa | 0 mm | - | 0 W/m² | - |
| 1777864496 | 8.89° C | 68% | 1016.6 hPa | 0 mm | - | 0 W/m² | - |
| 1777864193 | 8.89° C | 67% | 1016.6 hPa | 0 mm | - | 0 W/m² | - |
| 1777863891 | 8.89° C | 64% | 1016.8 hPa | 0 mm | - | 0 W/m² | - |
| 1777863586 | 8.89° C | 66% | 1017 hPa | 0 mm | - | 0 W/m² | - |
| 1777863284 | 8.89° C | 66% | 1016.7 hPa | 0 mm | - | 0 W/m² | - |
* Rain latest hour (hover to see other rain measurements)
** Current wind speed in m/s (hover to see current wind gust speed)